Regional Weather Roundup
Issued by NWS Burlington, VT

Current Version | Previous Version | Text Only | Print | Product List | Glossary Off
Versions: 1 2 3 4 5 6 7 8 9 10 11 12 13 14 15 16 17 18 19 20 21 22 23 24 25 26 27 28 29 30 31 32 33 34 35 36 37 38 39 40 41 42 43 44 45 46 47 48 49 50

000
ASUS41 KBTV 221510
RWRBTV
VERMONT REGIONAL WEATHER ROUNDUP
NATIONAL WEATHER SERVICE BURLINGTON VT
1100 AM EDT TUE JUL 22 2014

NOTE: "FAIR" INDICATES FEW OR NO CLOUDS BELOW 12,000 FEET WITH NO
SIGNIFICANT WEATHER AND/OR OBSTRUCTIONS TO VISIBILITY.

* THESE REPORTS ARE NOT UNDER NWS QUALITY CONTROL AND/OR DO NOT
  REPORT WEATHER SUCH AS PRECIPITATION AND FOG.

VTZ001>019-221600-
_____VERMONT_____


CITY           SKY/WX    TMP DP  RH WIND       PRES   REMARKS
BURLINGTON     MOSUNNY   83  65  54 SW8       30.09F
MONTPELIER     MOSUNNY   80  65  59 VRB3      30.17F
MORRISVILLE    MOSUNNY   81  64  56 VRB3      30.13F
ST. JOHNSBURY*   N/A     79  64  60 MISG      30.10F
LYNDONVILLE*   FAIR      78  63  58 S3        30.15F
MIDDLEBURY*    FAIR      80  67  64 S7        30.12F
RUTLAND*       PTSUNNY   77  66  69 CALM      30.15S
SPRINGFIELD    SUNNY     80  67  64 VRB3      30.13F
HIGHGATE*      FAIR      80  64  59 SW6       30.08F
NEWPORT*       FAIR     N/A N/A N/A W8        30.12F
BENNINGTON     MOSUNNY   80  67  64 CALM      30.15S
SUTTON*          N/A     79 N/A N/A MISG        N/A

_____LAKE CHAMPLAIN_____


CITY           SKY/WX    TMP DP  RH WIND       PRES   REMARKS
COLCHESTER RF*   N/A     73  68  83 S12         N/A
DIAMOND ISL*     N/A     75  66  73 W3          N/A

$$

NYZ007-026>031-035-052-083-221600-
_____NORTHERN NEW YORK_____


CITY           SKY/WX    TMP DP  RH WIND       PRES   REMARKS
PLATTSBURGH    MOSUNNY   79  68  69 SE12      30.08F
SARANAC LAKE   PTSUNNY   74  61  63 W8        30.14F
MASSENA        SUNNY     80  66  62 SW6       30.09F
OGDENSBURG*    SUNNY     81  68  65 SW5       30.09F
POTSDAM*       SUNNY     79  70  73 W7        30.10F
WATERTOWN      SUNNY     80  62  54 SW7       30.10F
FT DRUM        SUNNY     80  64  58 W5        30.11F
ALBANY         MOSUNNY   81  67  62 CALM      30.13S
GLENS FALLS    PTSUNNY   78  67  68 S5        30.12S

$$
NHZ002-005-011-221600-
_____NEW HAMPSHIRE_____


CITY           SKY/WX    TMP DP  RH WIND       PRES   REMARKS
LEBANON        SUNNY     83  66  56 CALM      30.13R
KEENE          SUNNY     79  61  53 CALM      30.14S
MT WASHINGTON  FOG       54  54 100 W26G36      N/A  VSB 1/16
PLYMOUTH       FAIR      80  65  59 W5        30.12S
WHITEFIELD     MOSUNNY   80  64  58 VRB5      30.14F

$$

_____REGIONAL QUEBEC LOCATIONS_____


CITY           SKY/WX    TMP DP  RH WIND       PRES   REMARKS

_____REGIONAL ONTARIO LOCATIONS_____


CITY           SKY/WX    TMP DP  RH WIND       PRES   REMARKS

______KEY______
VSB  - VISIBILITY IN MILES
WCI  - WIND CHILL INDEX
HX   - HEAT INDEX
$$



USA.gov is the U.S. government's official web portal to all federal, state and local government web resources and services.